This is the latest recevied weather packets stored in our database for station/object KA7EII-13. If no packets are shown the sender has not sent any weather packets the latest 1 day(s).
| Time | Temp. | Humidity | Pressure | Rain* | Wind** | Luminosity | Snow |
|---|---|---|---|---|---|---|---|
| 1778033130 | 11.67° C | 37% | 1099.8 hPa | 0 mm | - | 16 W/m² | - |
| 1778032525 | 11.67° C | 35% | 1099.4 hPa | 0 mm | - | 23 W/m² | - |
| 1778032222 | 12.22° C | 35% | 1099.7 hPa | 0 mm | - | 36 W/m² | - |
| 1778031919 | 12.78° C | 34% | 1099.4 hPa | 0 mm | - | 33 W/m² | - |
| 1778031615 | 12.78° C | 34% | 1099.2 hPa | 0 mm | - | 47 W/m² | - |
| 1778030705 | 13.33° C | 34% | 1099.1 hPa | 0 mm | - | 74 W/m² | - |
| 1778030403 | 13.33° C | 34% | 1098.6 hPa | 0 mm | - | 53 W/m² | - |
| 1778030100 | 13.33° C | 34% | 1098.6 hPa | 0 mm | - | 32 W/m² | - |
| 1778029796 | 13.89° C | 33% | 1098.6 hPa | 0 mm | - | 47 W/m² | - |
| 1778029496 | 13.89° C | 33% | 1098.6 hPa | 0 mm | - | 75 W/m² | - |
| 1778029191 | 14.44° C | 32% | 1098.3 hPa | 0 mm | - | 68 W/m² | - |
| 1778028890 | 14.44° C | 31% | 1098.6 hPa | 0 mm | - | 95 W/m² | - |
| 1778028590 | 14.44° C | 31% | 1098.5 hPa | 0 mm | - | 52 W/m² | - |
| 1778027984 | 15° C | 30% | 1098.1 hPa | 0 mm | - | 35 W/m² | - |
| 1778027681 | 15.56° C | 29% | 1098 hPa | 0 mm | - | 44 W/m² | - |
| 1778027377 | 16.11° C | 29% | 1098 hPa | 0 mm | - | 114 W/m² | - |
| 1778027073 | 16.11° C | 28% | 1098.1 hPa | 0 mm | - | 152 W/m² | - |
| 1778026769 | 16.11° C | 28% | 1098.1 hPa | 0 mm | - | 98 W/m² | - |
| 1778026466 | 16.11° C | 28% | 1098 hPa | 0 mm | - | 105 W/m² | - |
| 1778025861 | 16.67° C | 28% | 1098 hPa | 0 mm | - | 91 W/m² | - |
| 1778024952 | 16.67° C | 27% | 1097.8 hPa | 0 mm | - | 92 W/m² | - |
| 1778024650 | 17.22° C | 27% | 1097.7 hPa | 0 mm | - | 165 W/m² | - |
| 1778021016 | 18.33° C | 26% | 1097.6 hPa | 0 mm | - | 368 W/m² | - |
| 1778019802 | 18.33° C | 24% | 1098 hPa | 0 mm | - | 486 W/m² | - |
| 1778019499 | 18.89° C | 25% | 1097.8 hPa | 0 mm | - | 530 W/m² | - |
* Rain latest hour (hover to see other rain measurements)
** Current wind speed in m/s (hover to see current wind gust speed)